SL-3 DEB

Satellite information

Favourite Embed

Satellite Type and Status

DEBRISIN ORBIT

Key statistics

Satellite SL-3 DEB at a glance.

Uptime

18419

Days in orbit

Revolutions

≈ 14.1

Per day

Orbit

LEO

Low Earth Orbit

Inclination

81.3

Latest

Satellite identification and parameters

Extended collection of information and parameters for SL-3 DEB.

Object identification

Identified? True

Debris? True

Object name: SL-3 DEB

International designator: 1975-064D

Object number (NORAD): 8110

Object ID (CCSDS): 8110

Country: COMMONWEALTH OF INDEPENDENT STATES (CIS)

Current information (Y/N): Y

RCS size: SMALL

Orbital parameters

Period: 102.022 minutes

Inclination: 81.3475 deg

SMA: 7232.532 km

Apoapsis: 878.259 km

Periapsis: 830.534 km

RAAN: 302.919 deg

Eccentricy: 0.00329932

Argument of periapsis: 178.7172 deg

Mean anomaly: 181.4091 deg

Mean motion: 14.11455629 rev/day

Mean motion (dot): 0.00000112 rev/day2

B* drag term: 0.000054548173 1/REarth

Two-line elements (TLE)

Creation date: Dec. 12, 2025, 10:14 a.m.

Reference frame: TEME

Reference center: EARTH

Epoch: Dec. 12, 2025, 6:12 a.m. UTC

TLE line 0: 0 SL-3 DEB

TLE line 1: 1 08110U 75064D 25346.25848216 .00000112 00000-0 54548-4 0 9992

TLE line 2: 2 08110 81.3475 302.9190 0032993 178.7172 181.4091 14.11455629595172

Live tracking on map

Real-time ground track for satellite SL-3 DEB.

In-orbit conjunctions

A list of the most updated potential collisions computed for object SL-3 DEB.

Target Orbit TCA Probability of collision Miss distance Type
THORAD AGENA D DEB SSO 2025-10-10 22:29:23 0.0001153358 84.0 (m) DEBRIS

Associated space launch

Second generation soviet meteorological satellite

SL-3 DEB was lifted into orbit during the mission ‘Vostok 8A92M | Meteor-2 1’, on board a Vostok 8A92M space rocket.

The launch took place on July 11, 1975, 4:15 a.m. from 41/1.

For more information about the launch, click the button.

Launch to space Vostok 8A92M | Meteor-2 1
Vostok 8A92M | Meteor-2 1

Agency: N/A

Status: Launch Successful

Launch date: July 11, 1975, 4:15 a.m. UTC

Rocket: Vostok 8A92M

Launch pad: 41/1

Location: Plesetsk Cosmodrome, Russian Federation

...

Latest news about this satellite

There are no fresh news available about this satellite. Check back as we update our databases every day.


Newsletter sign-up

Weekly statistics, charts and insights to help you stay on top of the space industry.